GW0618 Weather Reports


Display with metric or nautical units.
time (UTC)temp
F
wind
direction
speed
MPH
gust
MPH
rain 1hr
in
rain 24hr
in
rain mn
in
humidity
%
barometer
mb
20260506101824 49 74 5.0 13.0 0.00 0.01 0.00 60
20260506100903 48 65 5.0 13.0 0.00 0.01 0.00 58
20260506100003 49 79 6.0 13.0 0.00 0.01 0.00 61
20260506095403 49 81 6.0 13.0 0.00 0.01 0.00 58
20260506094503 48 82 4.0 11.0 0.00 0.01 0.00 64
20260506093603 48 34 5.0 11.0 0.00 0.01 0.00 62
20260506092724 46 45 6.0 16.0 0.00 0.01 0.00 63
20260506091803 48 80 6.0 13.0 0.00 0.01 0.00 61
20260506090902 47 34 6.0 13.0 0.00 0.01 0.00 66
20260506090004 46 43 6.0 12.0 0.00 0.01 0.00 66
20260506085403 46 40 7.0 14.0 0.00 0.01 0.00 65
20260506084502 47 70 5.0 14.0 0.00 0.01 0.00 62
20260506083602 47 82 6.0 14.0 0.00 0.01 0.00 62
20260506082703 47 71 8.0 16.0 0.00 0.01 0.00 62
20260506081803 47 73 8.0 16.0 0.00 0.01 0.00 63
20260506080924 46 77 9.0 16.0 0.00 0.01 0.00 62
20260506072703 46 53 6.0 11.0 0.00 0.01 0.00 69
20260506071803 46 20 5.0 12.0 0.00 0.01 0.00 68
20260506070903 46 345 2.0 6.0 0.00 0.01 0.00 71
20260506061823 41 5 3.0 5.0 0.00 0.01 0.00 78
20260506060903 40 12 1.0 5.0 0.00 0.01 0.00 78
20260506050903 38 0 0.0 0.0 0.00 0.01 0.00 81
20260506044503 38 86 1.0 4.0 0.00 0.01 0.00 82
20260506043603 38 86 2.0 4.0 0.00 0.01 0.00 82
20260506042703 38 86 0.0 1.0 0.00 0.01 0.00 82
20260506041803 38 86 1.0 2.0 0.00 0.01 0.00 82
20260506040903 38 86 1.0 4.0 0.00 0.01 0.00 82
20260506040003 38 86 2.0 4.0 0.00 0.01 0.00 82
20260506035403 38 85 2.0 5.0 0.00 0.01 0.00 82
20260506034503 38 87 2.0 6.0 0.00 0.01 0.00 82
20260506033624 38 83 4.0 7.0 0.00 0.01 0.00 82
20260506032703 39 74 4.0 6.0 0.00 0.01 0.00 82
20260506031824 39 81 3.0 6.0 0.00 0.01 0.00 83
20260506030903 39 65 4.0 7.0 0.00 0.01 0.00 83
20260506030003 39 67 4.0 8.0 0.00 0.01 0.00 83
20260506025403 39 69 4.0 8.0 0.00 0.01 0.00 83
20260506024503 39 62 4.0 7.0 0.00 0.01 0.00 84
20260506023603 39 36 4.0 6.0 0.00 0.01 0.00 84
20260506022703 39 43 4.0 7.0 0.00 0.01 0.00 84
20260506021803 39 38 4.0 8.0 0.00 0.01 0.00 84
20260506020903 39 34 4.0 7.0 0.00 0.01 0.00 84
20260506020003 39 22 3.0 6.0 0.00 0.01 0.00 84
20260506015404 39 24 3.0 5.0 0.00 0.01 0.00 84
20260506014524 39 38 3.0 5.0 0.00 0.01 0.00 84
20260506013624 39 41 3.0 6.0 0.00 0.01 0.00 84
20260506012703 40 45 4.0 6.0 0.00 0.01 0.00 83
20260506011803 40 52 4.0 6.0 0.00 0.01 0.00 83
20260506010903 40 41 4.0 7.0 0.00 0.01 0.00 83
20260506010024 40 359 3.0 5.0 0.00 0.01 0.00 83
20260506005403 40 356 2.0 5.0 0.00 0.01 0.00 83
20260506004504 40 43 1.0 5.0 0.00 0.01 0.00 82
20260506003603 40 53 2.0 5.0 0.00 0.01 0.00 82
20260506002703 40 79 4.0 12.0 0.00 0.01 0.00 82
20260506001803 40 73 5.0 8.0 0.00 0.01 0.00 82
20260506000924 40 72 4.0 11.0 0.00 0.01 0.00 82
20260506000024 41 65 4.0 12.0 0.00 0.01 0.00 81
20260505235403 41 64 4.0 8.0 0.00 0.01 0.00 81
20260505234503 41 64 5.0 8.0 0.00 0.01 0.00 81
20260505233623 41 67 5.0 10.0 0.00 0.01 0.00 82
20260505232703 41 73 6.0 11.0 0.00 0.01 0.00 81
20260505231823 41 69 5.0 11.0 0.00 0.01 0.00 81
20260505230902 41 70 5.0 13.0 0.00 0.01 0.00 81
20260505230002 41 69 6.0 12.0 0.00 0.01 0.00 81
20260505225402 41 66 5.0 11.0 0.00 0.01 0.01 81
20260505224502 41 54 7.0 14.0 0.00 0.01 0.01 81
20260505223623 41 69 5.0 12.0 0.00 0.01 0.01 82
20260505222723 41 63 4.0 8.0 0.00 0.01 0.01 82
20260505221802 41 43 4.0 7.0 0.00 0.01 0.01 81
20260505220902 41 54 4.0 10.0 0.00 0.01 0.01 81
20260505220002 41 70 4.0 12.0 0.00 0.01 0.01 81
20260505215423 41 64 7.0 17.0 0.00 0.01 0.01 81
20260505214502 41 61 9.0 16.0 0.00 0.01 0.01 81
20260505213602 41 50 5.0 16.0 0.00 0.01 0.01 81
20260505212702 41 64 7.0 16.0 0.00 0.01 0.01 81
20260505211802 41 58 8.0 17.0 0.00 0.01 0.01 81
20260505210902 42 58 10.0 19.0 0.00 0.01 0.01 81
20260505210002 42 71 9.0 19.0 0.00 0.01 0.01 80
20260505205423 42 70 10.0 17.0 0.00 0.01 0.01 80
20260505204502 42 67 11.0 19.0 0.00 0.01 0.01 80
20260505203602 42 76 9.0 16.0 0.00 0.01 0.01 79
20260505202702 43 76 9.0 16.0 0.00 0.01 0.01 79
20260505201802 43 74 9.0 20.0 0.00 0.01 0.01 78
20260505200902 43 65 10.0 18.0 0.00 0.01 0.01 78
20260505200002 43 65 12.0 19.0 0.00 0.01 0.01 78
20260505195402 44 69 11.0 19.0 0.00 0.01 0.01 78
20260505194523 44 65 9.0 18.0 0.00 0.01 0.01 78
20260505193602 44 62 11.0 20.0 0.00 0.01 0.01 78
20260505192702 44 68 10.0 20.0 0.00 0.01 0.01 77
20260505191802 44 70 11.0 20.0 0.00 0.01 0.01 77
20260505190902 45 70 11.0 20.0 0.00 0.01 0.01 76
20260505190002 45 67 14.0 24.0 0.00 0.01 0.01 76
20260505185402 45 70 13.0 24.0 0.00 0.01 0.01 76
20260505184502 45 70 9.0 19.0 0.00 0.01 0.01 75
20260505183602 45 65 10.0 19.0 0.00 0.01 0.01 75
20260505182702 45 64 14.0 23.0 0.00 0.01 0.01 74
20260505181802 46 67 13.0 24.0 0.00 0.01 0.01 74
20260505180902 46 63 13.0 25.0 0.00 0.01 0.01 74
20260505180002 46 53 11.0 23.0 0.00 0.01 0.01 74
20260505175402 46 60 13.0 23.0 0.00 0.01 0.01 73
20260505174502 47 65 11.0 20.0 0.00 0.01 0.01 72
20260505173602 47 66 14.0 25.0 0.00 0.01 0.01 70
20260505172723 47 67 12.0 22.0 0.00 0.01 0.01 71
20260505171802 47 74 14.0 25.0 0.00 0.01 0.01 70
20260505170902 47 68 15.0 28.0 0.00 0.01 0.01 69
20260505170002 47 68 15.0 24.0 0.00 0.01 0.01 70
20260505165402 48 64 12.0 24.0 0.00 0.01 0.01 70
20260505164502 48 60 14.0 24.0 0.00 0.01 0.01 71
20260505163602 47 68 15.0 30.0 0.00 0.01 0.01 71
20260505162723 47 68 15.0 31.0 0.00 0.01 0.01 72
20260505161802 48 62 14.0 24.0 0.00 0.01 0.01 72
20260505160923 48 64 14.0 26.0 0.00 0.01 0.01 73
20260505152723 49 65 14.0 24.0 0.00 0.01 0.01 75
20260505151802 49 60 15.0 25.0 0.00 0.01 0.01 74
20260505150902 48 52 14.0 22.0 0.00 0.01 0.01 75
20260505124502 51 45 10.0 20.0 0.00 0.00 0.00 72
20260505123603 52 56 7.0 20.0 0.00 0.00 0.00 71
20260505122723 52 76 7.0 14.0 0.00 0.00 0.00 70
20260505121803 53 91 7.0 16.0 0.00 0.00 0.00 69
20260505120923 53 110 4.0 11.0 0.00 0.00 0.00 74
20260505120003 51 111 3.0 8.0 0.00 0.00 0.00 78
20260505115402 51 87 4.0 8.0 0.00 0.00 0.00 77
20260505114502 51 343 5.0 11.0 0.00 0.00 0.00 77
20260505113603 51 263 5.0 8.0 0.00 0.00 0.00 75
20260505112703 51 269 6.0 8.0 0.00 0.00 0.00 76
20260505111802 51 274 5.0 7.0 0.00 0.00 0.00 73
20260505110903 52 339 2.0 7.0 0.00 0.00 0.00 77